STARLINK-32783 (62606 NORAD) Tracking and Keplerian Element Data

This shows tracking and keplerian element data for the satellite.

Feedback or suggestion? Click here.




ElementValue
Catalog62606
NameSTARLINK-32783
Epoch Orbit456
Epoch Day35.16668981
Epoch Year2025
RAAN11.8805
Inclination43
Eccentricity8.51E-05
Argument of Perigee265.175
Mean Anonmoly228.3751
Mean Motion15.50632078
Decay Rate-0.00034406
L11 62606U 25008V 25035.16668981 -.00034406 00000+0 -58215-3 0 9997
L22 62606 43.0000 11.8805 0000851 265.1750 228.3751 15.50632078 4562



Live tracking and technical data element details for STARLINK-32783 (NORAD 62606). STARLINK-32783 can be tracked NOW for your location showing map with azimuth and elevation plus other details from your city location.







IsCatalogInMostPopularTable: catalog: 62606, numindb: 3
Update: records affected: 1



GetName: 62606 STARLINK-32783

Hit Count: updated at: Sun, 09 Feb 2025 14:54:02 GMT